User: anonymous   Login
Location: Boiro
(42.6475°N, 8.8834°W)
Time: 16:38:44
(UTC+02:00)
Language:

Tiros 1 despin weight - Orbit

View from above orbital plane
View from above orbital plane
View from above satellite
View from above satellite

Ground track
Ground track

The orbit data is extracted from the following two-line orbital elements,

1 00115U 60002D   22146.58770491  .00001471  00000-0  19825-3 0  9992
2 00115  48.1643 107.8601 0033449 131.2693 229.1109 14.84350537296973
Epoch (UTC): 26 May 2022 14:06:17
Eccentricity: 0.0033449
inclination: 48.1643°
perigee height: 592 km
apogee height: 639 km
right ascension of ascending node: 107.8601°
argument of perigee: 131.2693°
revolutions per day: 14.84350537
mean anomaly at epoch: 229.1109°
orbit number at epoch: 29697

The dashed part of the orbit path shows where the satellite is in the earth's shadow,  

DLR